Date String (YYYY-MM-DD hh:mm:ss) UTC,Instrument flags,Ambient pressure (hPa),Sample flow (lpm),Bypass flow (lpm),Sample temperature (°C),Ambient temperature (°C),ASC tube jacket temperature (°C),LED temperature (°C),Box temperature (°C),Sample RH (%),Span deviation,Mass concentration (μg/m³),Mass concentration (μg/m³),Mass concentration (μg/m³)
DateTimeUTC,F1_M11,P_M11,Q1_M11,Q2_M11,T1_M11,T2_M11,T3_M11,T4_M11,T5_M11,U1_M11,ZSPAN_M11,X0_M11,X2_M11,X1_M11
2022-03-24 19:00:00,,0825.1,5.02,0.00,27.4,26.6,00.0,36.3,29.2,08.6,0000.0,0001.69,0000.98,0000.68
2022-03-24 19:01:00,,0825.2,4.99,0.00,27.4,26.6,00.0,36.3,29.2,08.5,0000.0,0001.78,0000.99,0000.68
2022-03-24 19:02:00,,0825.2,5.01,0.00,27.4,26.6,00.0,36.3,29.3,08.4,0000.0,0001.89,0001.04,0000.68
2022-03-24 19:03:00,,0825.2,4.99,0.00,27.4,26.7,00.0,36.3,29.2,08.3,0000.0,0001.89,0001.04,0000.68
2022-03-24 19:04:00,,0825.2,4.99,0.00,27.4,26.7,00.0,36.3,29.2,08.5,0000.0,0002.32,0001.04,0000.69
2022-03-24 19:05:00,,0825.2,4.99,0.00,27.5,26.7,00.0,36.3,29.2,08.4,0000.0,0003.30,0001.06,0000.69
2022-03-24 19:06:00,,0825.1,5.01,0.00,27.5,26.7,00.0,36.3,29.3,08.3,0000.0,0003.32,0001.06,0000.69
2022-03-24 19:07:00,,0825.0,5.01,0.00,27.5,26.7,00.0,36.3,29.3,08.4,0000.0,0003.36,0001.06,0000.69
2022-03-24 19:08:00,,0825.1,4.99,0.00,27.5,26.7,00.0,36.4,29.3,08.4,0000.0,0003.28,0001.04,0000.69
2022-03-24 19:09:00,,0825.1,5.00,0.00,27.5,26.7,00.0,36.4,29.3,08.4,0000.0,0003.31,0001.05,0000.70
2022-03-24 19:10:00,,0825.1,5.00,0.00,27.5,26.7,00.0,36.4,29.3,08.6,0000.0,0003.33,0001.05,0000.70
2022-03-24 19:11:00,,0825.0,4.99,0.00,27.5,26.7,00.0,36.4,29.3,08.6,0000.0,0003.45,0001.06,0000.70
2022-03-24 19:12:00,,0825.0,4.99,0.00,27.5,26.8,00.0,36.4,29.3,08.5,0000.0,0003.43,0001.08,0000.69
2022-03-24 19:13:00,,0825.1,5.00,0.00,27.5,26.8,00.0,36.4,29.4,08.8,0000.0,0003.40,0001.06,0000.70
2022-03-24 19:14:00,,0825.1,5.01,0.00,27.6,26.8,00.0,36.4,29.4,08.6,0000.0,0003.40,0001.07,0000.70
2022-03-24 19:15:00,,0824.9,4.99,0.00,27.6,26.8,00.0,36.4,29.4,08.6,0000.0,0003.23,0001.08,0000.70
2022-03-24 19:16:00,,0824.9,4.99,0.00,27.6,26.8,00.0,36.4,29.4,08.6,0000.0,0001.94,0001.04,0000.69
2022-03-24 19:17:00,,0824.9,5.01,0.00,27.6,26.9,00.0,36.4,29.4,08.5,0000.0,0001.91,0001.04,0000.69
2022-03-24 19:18:00,,0824.9,5.01,0.00,27.6,26.9,00.0,36.5,29.4,08.6,0000.0,0001.79,0001.03,0000.69
2022-03-24 19:19:00,,0824.9,5.00,0.00,27.7,26.9,00.0,36.5,29.4,08.5,0000.0,0001.90,0001.03,0000.69
2022-03-24 19:20:00,,0824.9,4.99,0.00,27.7,26.9,00.0,36.5,29.5,08.5,0000.0,0001.93,0001.03,0000.69
2022-03-24 19:21:00,,0824.9,5.00,0.00,27.7,26.9,00.0,36.5,29.5,08.6,0000.0,0001.97,0001.07,0000.69
2022-03-24 19:22:00,,0824.9,5.02,0.00,27.7,26.9,00.0,36.5,29.5,08.4,0000.0,0001.89,0001.06,0000.69
2022-03-24 19:23:00,,0825.0,4.98,0.00,27.7,26.9,00.0,36.5,29.5,08.5,0000.0,0001.75,0001.03,0000.69
2022-03-24 19:24:00,,0825.0,4.99,0.00,27.7,27.0,00.0,36.6,29.5,08.4,0000.0,0001.80,0001.04,0000.69
2022-03-24 19:25:00,,0825.0,5.01,0.00,27.7,27.0,00.0,36.6,29.5,08.7,0000.0,0001.85,0001.02,0000.69
2022-03-24 19:26:00,,0825.0,5.00,0.00,27.8,27.0,00.0,36.6,29.5,08.5,0000.0,0001.87,0001.04,0000.69
2022-03-24 19:27:00,,0825.1,5.00,0.00,27.8,27.0,00.0,36.6,29.6,08.4,0000.0,0001.92,0001.08,0000.71
2022-03-24 19:28:00,,0825.1,4.99,0.00,27.8,27.0,00.0,36.6,29.6,08.2,0000.0,0001.98,0001.12,0000.72
2022-03-24 19:29:00,,0825.1,5.01,0.00,27.8,27.1,00.0,36.6,29.6,08.3,0000.0,0001.94,0001.10,0000.72
2022-03-24 19:30:00,,0825.0,5.00,0.00,27.8,27.1,00.0,36.6,29.6,08.6,0000.0,0001.90,0001.11,0000.73
2022-03-24 19:31:00,,0825.1,5.00,0.00,27.8,27.1,00.0,36.7,29.6,08.4,0000.0,0001.89,0001.13,0000.72
2022-03-24 19:32:00,,0825.1,5.00,0.00,27.9,27.1,00.0,36.7,29.7,08.1,0000.0,0001.95,0001.14,0000.72
2022-03-24 19:33:00,,0825.1,5.00,0.00,27.9,27.2,00.0,36.7,29.7,08.3,0000.0,0002.34,0001.13,0000.72
2022-03-24 19:34:00,,0825.0,5.00,0.00,27.9,27.2,00.0,36.7,29.7,08.5,0000.0,0002.98,0001.16,0000.73
2022-03-24 19:35:00,,0824.9,5.00,0.00,27.9,27.2,00.0,36.7,29.7,09.0,0000.0,0004.16,0001.18,0000.73
2022-03-24 19:36:00,,0824.9,5.00,0.00,27.9,27.2,00.0,36.7,29.8,08.7,0000.0,0005.08,0001.21,0000.74
2022-03-24 19:37:00,,0824.9,5.01,0.00,28.0,27.3,00.0,36.8,29.8,08.7,0000.0,0005.12,0001.24,0000.73
2022-03-24 19:38:00,,0825.0,4.99,0.00,28.0,27.2,00.0,36.8,29.8,08.6,0000.0,0005.12,0001.21,0000.73
2022-03-24 19:39:00,,0824.9,4.99,0.00,28.0,27.2,00.0,36.8,29.8,09.0,0000.0,0005.13,0001.21,0000.73
2022-03-24 19:40:00,,0825.0,5.01,0.00,28.0,27.2,00.0,36.8,29.8,09.1,0000.0,0005.11,0001.19,0000.72
2022-03-24 19:41:00,,0825.0,4.98,0.00,28.0,27.2,00.0,36.8,29.8,09.0,0000.0,0005.11,0001.20,0000.72
2022-03-24 19:42:00,,0824.9,5.02,0.00,28.0,27.2,00.0,36.8,29.8,08.7,0000.0,0005.20,0001.20,0000.73
2022-03-24 19:43:00,,0825.0,5.00,0.00,28.0,27.3,00.0,36.9,29.8,08.9,0000.0,0005.15,0001.19,0000.73
2022-03-24 19:44:00,,0825.1,4.99,0.00,28.0,27.3,00.0,36.9,29.8,09.2,0000.0,0004.86,0001.21,0000.73
2022-03-24 19:45:00,,0824.9,4.99,0.00,28.0,27.3,00.0,36.9,29.9,08.8,0000.0,0004.25,0001.21,0000.73
2022-03-24 19:46:00,,0824.9,5.01,0.00,28.1,27.3,00.0,36.9,29.9,08.7,0000.0,0003.15,0001.18,0000.73
2022-03-24 19:47:00,,0824.8,4.98,0.00,28.1,27.3,00.0,36.9,29.8,08.5,0000.0,0002.17,0001.18,0000.73
2022-03-24 19:48:00,,0824.8,4.99,0.00,28.1,27.3,00.0,36.9,29.9,08.7,0000.0,0002.14,0001.17,0000.74
2022-03-24 19:49:00,,0824.9,5.01,0.00,28.1,27.3,00.0,36.9,29.9,08.3,0000.0,0002.12,0001.16,0000.73
2022-03-24 19:50:00,,0824.9,4.99,0.00,28.1,27.4,00.0,36.9,29.9,08.4,0000.0,0002.18,0001.18,0000.74
2022-03-24 19:51:00,,0824.9,5.00,0.00,28.1,27.4,00.0,36.9,29.9,08.5,0000.0,0002.21,0001.19,0000.75
2022-03-24 19:52:00,,0824.9,5.00,0.00,28.1,27.4,00.0,37.0,29.9,08.3,0000.0,0002.32,0001.21,0000.75
2022-03-24 19:53:00,,0824.9,5.00,0.00,28.1,27.4,00.0,37.0,29.9,08.5,0000.0,0002.40,0001.20,0000.74
2022-03-24 19:54:00,,0824.8,4.99,0.00,28.2,27.4,00.0,37.0,29.9,08.7,0000.0,0002.35,0001.17,0000.75
2022-03-24 19:55:00,,0824.8,5.01,0.00,28.2,27.4,00.0,37.0,29.9,08.3,0000.0,0002.39,0001.19,0000.76
2022-03-24 19:56:00,,0824.7,5.01,0.00,28.2,27.4,00.0,37.0,29.9,08.4,0000.0,0002.39,0001.21,0000.76
2022-03-24 19:57:00,,0824.6,4.99,0.00,28.2,27.4,00.0,37.0,30.0,08.3,0000.0,0002.37,0001.23,0000.78
2022-03-24 19:58:00,,0824.7,4.99,0.00,28.2,27.4,00.0,37.0,30.0,08.4,0000.0,0002.36,0001.21,0000.78
2022-03-24 19:59:00,,0824.6,4.99,0.00,28.2,27.4,00.0,37.1,30.0,08.3,0000.0,0002.38,0001.22,0000.78
